Regional Weather Roundup
Issued by NWS

Home | Current Version | Previous Version | Graphics & Text | Print | Product List | Glossary On
Versions: 1 2 3 4 5 6 7 8 9 10 11 12 13 14 15 16 17 18 19 20 21 22 23 24 25 26 27
000
ASUS45 KBOU 200907
RWRCO

WEATHER ROUNDUP FOR COLORADO
NATIONAL WEATHER SERVICE DENVER/BOULDER CO
300 AM MDT FRI OCT 20 2017

NOTE: "FAIR" INDICATES FEW OR NO CLOUDS BELOW 12000 FEET WITH NO
SIGNIFICANT WEATHER AND/OR OBSTRUCTIONS TO VISIBILITY.

COZ001>005-013-030-031-201000-
...NORTHWEST COLORADO...

CITY           SKY/WX    TMP DP  RH WIND       PRES   REMARKS
CRAIG          FAIR      36  29  75 CALM      29.91F
HAYDEN         FAIR      48  30  49 E10       29.93F
MEEKER         FAIR      40  31  70 NE7       29.91F
RABBIT EARS PA FAIR      39  28  65 SW7G18    30.12F
STEAMBOAT SPGS FAIR      43  30  59 CALM      29.95F
WALDEN         NOT AVBL
$$

COZ006>008-011-201000-
...WEST CENTRAL VALLEYS...

CITY           SKY/WX    TMP DP  RH WIND       PRES   REMARKS
GRAND JUNCTION FAIR      59  32  36 SE12      29.86F
MONTROSE       MOCLDY    50  31  48 SE9       29.96F
EAGLE          MOCLDY    40  28  62 CALM      30.01F
RIFLE          FAIR      46  31  55 CALM      29.92F
DELTA          FAIR      54  31  41 CALM      29.93S
NUCLA          CLOUDY    57  32  38 SE6       30.00F
$$

COZ017>023-064>068-201000-
...SOUTHWEST COLORADO...

CITY           SKY/WX    TMP DP  RH WIND       PRES   REMARKS
DURANGO        MOCLDY    46  33  60 NE6       30.06F
CORTEZ         CLOUDY    49  35  58 E8        29.99F
PAGOSA SPRINGS CLOUDY    48  31  51 CALM      30.11F
TELLURIDE      FAIR      48  33  56 SE5       30.14F
WOLF CREEK PAS CLOUDY    32  32 100 SW17      30.30F WCI  21
$$

COZ009-010-012-014-032>034-037-058>063-201000-
...CENTRAL COLORADO...

CITY           SKY/WX    TMP DP  RH WIND       PRES   REMARKS
ASPEN          FAIR      36  27  69 S7        30.03F
BUENA VISTA    FAIR      33  22  62 CALM      30.05S
COPPER MTN     FAIR      37  23  56 W5        30.23F
BERTHOUD PASS  FAIR      32  23  69 W15G24    30.24F WCI  22
COTTONWOOD PAS FAIR      50  28  43 W6        30.12F
GUNNISON       FAIR      32  23  69 CALM      30.08F
KREMMLING      FAIR      36  27  69 CALM      30.03F
LEADVILLE      FAIR      30  19  63 NE6       30.11F WCI  24
MONARCH PASS   FAIR      34  23  64 W25       30.33S WCI  21
SALIDA         FAIR      45  21  39 NW3       30.09F
SUNLIGHT       CLOUDY    36  27  69 SW13G22   30.18F
WILKERSON PASS FAIR      41  18  38 W10G20    30.19F
$$

COZ069>075-201000-
...SAN LUIS VALLEY/SANGRE DE CRISTO MOUNTAINS...

CITY           SKY/WX    TMP DP  RH WIND       PRES   REMARKS
ALAMOSA        FAIR      44  34  67 SW7       30.05F
DEL NORTE      FAIR      48  31  50 W17G23    30.07S
LA VETA PASS   FAIR      39  30  70 S31G41    30.24F
SAGUACHE       FAIR      34  19  55 CALM      30.08S
$$

COZ035-036-038>040-201000-
...NORTHERN COLORADO FRONT RANGE...

CITY           SKY/WX    TMP DP  RH WIND       PRES   REMARKS
DENVER INTL AP FAIR      50  30  46 W9        29.82F
DMNS CITY PARK   N/A     51  28  41 S6G13     29.82F
AURORA         PTCLDY    53  29  41 S7        29.83F
FRONT RANGE AP FAIR      46  34  61 W9        29.83F
ERIE MUNI ARPT FAIR      39  33  76 CALM      29.87F
BOULDER MUN AP FAIR      48  30  49 SW3       29.82S
CENTENNIAL     FAIR      50  28  42 SW7       29.84F
BROOMFIELD     FAIR      55  28  35 CALM      29.84S
FORT COLLINS   FAIR      47  38  71 CALM      29.81F
LONGMONT       FAIR      45  33  63 W3        29.83F
$$

COZ041-046-047-076>085-087-088-201000-
...PIKES PEAK/PALMER DIVIDE AND SOUTHERN FOOTHILLS...

CITY           SKY/WX    TMP DP  RH WIND       PRES   REMARKS
COLO. SPRINGS  MOCLDY    46  33  60 N9        29.89F
A. F. ACADEMY  FAIR      39  29  68 N8        29.89F
SCHRIEVER AFB  FAIR      49  31  50 N7        29.88F
CHEYENNE MTN   FAIR      57  25  29 CALM      29.86F
ELLICOTT       FAIR     N/A N/A N/A E7        29.87F
FALCON         FAIR      43  30  59 NW6       29.92F
FORT CARSON    FAIR      44  30  57 NW6       29.85F
LIMON          FAIR      33  32  96 W6        29.86F WCI  28
MONUMENT HILL  FAIR      45  27  49 SW8       29.93F
CANON CITY     FAIR      55  30  38 W17G23    29.85F
WALSENBURG     FAIR      61  34  36 W22G30    29.90F
TRINIDAD       FAIR      51  39  63 NW9       29.89F
$$

COZ042>045-048>051-090-091-201000-
...NORTHEAST COLORADO...

CITY           SKY/WX    TMP DP  RH WIND       PRES   REMARKS
GREELEY ARPT   FAIR      36  31  82 NW5       29.81F
AKRON          FAIR      48  40  73 SW12      29.79F
BURLINGTON     FAIR      51  46  83 S14       29.83F
WRAY           NOT AVBL
YUMA           FAIR      41  37  87 S5        29.78F
STERLING       FAIR      41  37  87 S5        29.76F
HOLYOKE        FAIR      43  39  87 S6        29.80F
FORT MORGAN    FAIR      41  32  71 SW3       29.80F
$$

COZ086-089-092>099-201000-
...SOUTHEAST COLORADO...

CITY           SKY/WX    TMP DP  RH WIND       PRES   REMARKS
PUEBLO         FAIR      43  33  68 CALM      29.83F
LA JUNTA       FAIR      53  41  63 SE3       29.81F
LAMAR          FAIR      61  47  59 S15G24    29.79F
SPRINGFIELD    NOT AVBL
$$




USA.gov is the U.S. government's official web portal to all federal, state and local government web resources and services.